Change the Weather History Date:

Wednesday, August 28, 2013

  Actual Average Record
Temperature  
Mean Temperature 80 °F -  
Max Temperature 91 °F 92 °F 105 °F (2011)
Min Temperature 69 °F 66 °F 35 °F (2004)
Cooling Degree Days 15    
Growing Degree Days 30 (Base 50)    
Moisture  
Dew Point 69 °F    
Average Humidity 71    
Maximum Humidity 94    
Minimum Humidity 46    
Precipitation  
Precipitation 0.00 in - - ()
Sea Level Pressure  
Sea Level Pressure 30.06 in    
Wind  
Wind Speed 6 mph (South)    
Max Wind Speed 15 mph    
Max Gust Speed 20 mph    
Visibility 10 miles    
Events      
Averages and records for this station are not official NWS values.
T = Trace of Precipitation, MM = Missing Value Source: NWS Daily Summary

Daily Weather History Graph

Daily Weather History Graph

Search for Another Location

Airport or City:

Trip Planner

Search our weather history database for the weather conditions in past years. The results will help you decide how hot, cold, wet, or windy it might be!

Date:

Astronomy

Aug. 28, 2013 Rise Set
Actual Time 6:59 AM CDT 8:01 PM CDT
Civil Twilight 6:33 AM CDT 8:27 PM CDT
Nautical Twilight 6:02 AM CDT 8:58 PM CDT
Astronomical Twilight 5:30 AM CDT 9:30 PM CDT
Moon 12:14 AM CDT (8/28) 2:34 PM CDT (8/28)
Length of Visible Light 13h 54m
Length of Day
13h 02m
Waning Gibbous, 47% of the Moon is Illuminated
Aug 28
Waning Gibbous
Sep 5
New
Sep 12
First Quarter
Sep 19
Full
Sep 26
Last Quarter

Hourly Weather History & Observations

Time (CDT) Temp. Heat Index Dew Point Humidity Pressure Visibility Wind Dir Wind Speed Gust Speed Precip Events Conditions
12:15 AM 73.4 °F - 69.8 °F 88% 30.06 in 10.0 mi Calm Calm - N/A   Clear
12:35 AM 73.4 °F - 69.8 °F 88% 30.06 in 10.0 mi Calm Calm - N/A   Clear
12:55 AM 73.4 °F - 69.8 °F 88% 30.07 in 10.0 mi South 4.6 mph - N/A   Clear
1:15 AM 71.6 °F - 69.8 °F 94% 30.07 in 10.0 mi SSE 5.8 mph - N/A   Clear
1:35 AM 73.4 °F - 69.8 °F 88% 30.06 in 10.0 mi SSE 6.9 mph - N/A   Clear
1:55 AM 73.4 °F - 69.8 °F 88% 30.05 in 10.0 mi South 5.8 mph - N/A   Clear
2:15 AM 73.4 °F - 68.0 °F 83% 30.05 in 10.0 mi South 4.6 mph - N/A   Clear
2:35 AM 71.6 °F - 68.0 °F 88% 30.05 in 10.0 mi South 3.5 mph - N/A   Clear
2:55 AM 71.6 °F - 68.0 °F 88% 30.06 in 10.0 mi SSE 3.5 mph - N/A   Clear
3:15 AM 71.6 °F - 68.0 °F 88% 30.06 in 10.0 mi South 4.6 mph - N/A   Clear
3:35 AM 71.6 °F - 68.0 °F 88% 30.06 in 10.0 mi South 4.6 mph - N/A   Clear
3:55 AM 71.6 °F - 68.0 °F 88% 30.06 in 10.0 mi SSE 4.6 mph - N/A   Clear
4:15 AM 69.8 °F - 68.0 °F 94% 30.06 in 10.0 mi South 4.6 mph - N/A   Clear
4:35 AM 69.8 °F - 68.0 °F 94% 30.06 in 10.0 mi South 4.6 mph - N/A   Clear
4:55 AM 69.8 °F - 68.0 °F 94% 30.06 in 10.0 mi South 4.6 mph - N/A   Clear
5:15 AM 69.8 °F - 68.0 °F 94% 30.06 in 10.0 mi SSE 5.8 mph - N/A   Clear
5:35 AM 69.8 °F - 68.0 °F 94% 30.06 in 10.0 mi South 5.8 mph - N/A   Clear
5:55 AM 69.8 °F - 68.0 °F 94% 30.07 in 10.0 mi SSE 5.8 mph - N/A   Clear
6:15 AM 69.8 °F - 68.0 °F 94% 30.07 in 10.0 mi SSE 6.9 mph - N/A   Clear
6:35 AM 69.8 °F - 68.0 °F 94% 30.07 in 10.0 mi SSE 5.8 mph - N/A   Clear
6:55 AM 69.8 °F - 68.0 °F 94% 30.08 in 10.0 mi SSE 5.8 mph - N/A   Clear
7:15 AM 71.6 °F - 68.0 °F 88% 30.08 in 10.0 mi SSE 5.8 mph - N/A   Clear
7:35 AM 71.6 °F - 68.0 °F 88% 30.09 in 10.0 mi SE 4.6 mph - N/A   Clear
7:55 AM 71.6 °F - 68.0 °F 88% 30.09 in 10.0 mi SSE 6.9 mph - N/A   Clear
8:15 AM 71.6 °F - 68.0 °F 88% 30.09 in 10.0 mi SSE 6.9 mph - N/A   Clear
8:35 AM 71.6 °F - 68.0 °F 88% 30.09 in 10.0 mi South 8.1 mph - N/A   Clear
8:55 AM 73.4 °F - 69.8 °F 88% 30.09 in 10.0 mi South 9.2 mph - N/A   Clear
9:15 AM 77.0 °F - 69.8 °F 78% 30.10 in 10.0 mi SSW 11.5 mph - N/A   Clear
9:35 AM 78.8 °F - 69.8 °F 74% 30.10 in 10.0 mi South 10.4 mph - N/A   Clear
9:55 AM 78.8 °F - 71.6 °F 78% 30.10 in 10.0 mi South 11.5 mph - N/A   Clear
10:15 AM 80.6 °F 84.6 °F 71.6 °F 74% 30.10 in 10.0 mi South 11.5 mph - N/A   Clear
10:35 AM 82.4 °F 87.2 °F 71.6 °F 70% 30.11 in 10.0 mi SSW 11.5 mph - N/A   Clear
10:55 AM 84.2 °F 89.6 °F 71.6 °F 66% 30.11 in 10.0 mi SSW 11.5 mph - N/A   Clear
11:15 AM 86.0 °F 91.8 °F 71.6 °F 62% 30.11 in 10.0 mi SW 10.4 mph - N/A   Scattered Clouds
11:35 AM 86.0 °F 91.8 °F 71.6 °F 62% 30.10 in 10.0 mi SW 12.7 mph 17.3 mph N/A   Scattered Clouds
11:55 AM 86.0 °F 91.8 °F 71.6 °F 62% 30.10 in 10.0 mi SW 15.0 mph - N/A   Clear
12:15 PM 86.0 °F 91.8 °F 71.6 °F 62% 30.10 in 10.0 mi SW 11.5 mph 19.6 mph N/A   Clear
12:35 PM 87.8 °F 93.8 °F 71.6 °F 58% 30.09 in 10.0 mi SW 12.7 mph 19.6 mph N/A   Clear
12:55 PM 87.8 °F 93.8 °F 71.6 °F 58% 30.09 in 10.0 mi WSW 10.4 mph - N/A   Scattered Clouds
1:15 PM 87.8 °F 93.8 °F 71.6 °F 58% 30.08 in - SW 11.5 mph 17.3 mph N/A   Scattered Clouds
1:35 PM 89.6 °F 96.2 °F 71.6 °F 55% 30.08 in 10.0 mi South 12.7 mph - N/A   Scattered Clouds
1:55 PM 89.6 °F 94.7 °F 69.8 °F 52% 30.08 in 10.0 mi SSW 11.5 mph - N/A   Scattered Clouds
2:15 PM 89.6 °F 94.7 °F 69.8 °F 52% 30.07 in 10.0 mi SW 10.4 mph 17.3 mph N/A   Scattered Clouds
2:35 PM 89.6 °F 94.7 °F 69.8 °F 52% 30.07 in 10.0 mi South 9.2 mph 17.3 mph N/A   Scattered Clouds
2:55 PM 89.6 °F 94.7 °F 69.8 °F 52% 30.06 in 10.0 mi South 11.5 mph - N/A   Scattered Clouds
3:15 PM 89.6 °F 94.7 °F 69.8 °F 52% 30.05 in - SSW 8.1 mph 17.3 mph N/A   Scattered Clouds
3:35 PM 91.4 °F 96.8 °F 69.8 °F 49% 30.04 in 10.0 mi SW 8.1 mph 16.1 mph N/A   Scattered Clouds
3:55 PM 89.6 °F 94.7 °F 69.8 °F 52% 30.04 in 10.0 mi SSW 9.2 mph - N/A   Mostly Cloudy
4:15 PM 89.6 °F 94.7 °F 69.8 °F 52% 30.04 in 10.0 mi South 9.2 mph - N/A   Mostly Cloudy
4:35 PM 91.4 °F 96.8 °F 69.8 °F 49% 30.04 in 10.0 mi SSW 11.5 mph - N/A   Mostly Cloudy
4:55 PM 91.4 °F 96.8 °F 69.8 °F 49% 30.03 in 10.0 mi SW 6.9 mph - N/A   Mostly Cloudy
5:15 PM 91.4 °F 96.8 °F 69.8 °F 49% 30.03 in 10.0 mi SW 8.1 mph 16.1 mph N/A   Mostly Cloudy
5:35 PM 89.6 °F 93.4 °F 68.0 °F 49% 30.03 in - SSW 9.2 mph - N/A   Mostly Cloudy
5:55 PM 89.6 °F 94.7 °F 69.8 °F 52% 30.02 in - SSE 5.8 mph - N/A   Mostly Cloudy
6:15 PM 91.4 °F 95.4 °F 68.0 °F 46% 30.02 in - SSW 8.1 mph - N/A   Overcast
6:35 PM 91.4 °F 95.4 °F 68.0 °F 46% 30.02 in - South 6.9 mph - N/A   Overcast
6:55 PM 89.6 °F 93.4 °F 68.0 °F 49% 30.02 in - SSE 5.8 mph - N/A   Mostly Cloudy
7:15 PM 89.6 °F 93.4 °F 68.0 °F 49% 30.02 in 10.0 mi SSE 4.6 mph - N/A   Scattered Clouds
7:35 PM 87.8 °F 92.6 °F 69.8 °F 55% 30.02 in 10.0 mi SE 5.8 mph - N/A   Scattered Clouds
7:55 PM 87.8 °F 91.4 °F 68.0 °F 52% 30.03 in - ESE 3.5 mph - N/A   Scattered Clouds
8:15 PM 86.0 °F 91.8 °F 71.6 °F 62% 30.03 in 10.0 mi ESE 5.8 mph - N/A   Mostly Cloudy
8:35 PM 84.2 °F 89.6 °F 71.6 °F 66% 30.03 in 10.0 mi ESE 6.9 mph - N/A   Scattered Clouds
8:55 PM 82.4 °F 87.2 °F 71.6 °F 70% 30.04 in - SE 8.1 mph - N/A   Clear
9:15 PM 82.4 °F 87.2 °F 71.6 °F 70% 30.04 in 10.0 mi SE 6.9 mph - N/A   Clear
9:35 PM 82.4 °F 87.2 °F 71.6 °F 70% 30.04 in 10.0 mi SE 6.9 mph - N/A   Clear
9:55 PM 82.4 °F 86.3 °F 69.8 °F 66% 30.04 in 10.0 mi SE 5.8 mph - N/A   Clear
10:15 PM 82.4 °F 86.3 °F 69.8 °F 66% 30.04 in 10.0 mi SSE 6.9 mph - N/A   Clear
10:35 PM 82.4 °F 86.3 °F 69.8 °F 66% 30.05 in 10.0 mi SE 9.2 mph - N/A   Clear
10:55 PM 82.4 °F 85.4 °F 68.0 °F 62% 30.05 in 10.0 mi SSE 8.1 mph - N/A   Clear
11:15 PM 82.4 °F 85.4 °F 68.0 °F 62% 30.05 in 10.0 mi SSE 8.1 mph - N/A   Clear
11:35 PM 80.6 °F 83.2 °F 68.0 °F 65% 30.05 in 10.0 mi SSE 8.1 mph - N/A   Clear
11:55 PM 80.6 °F 83.2 °F 68.0 °F 65% 30.05 in 10.0 mi SSE 8.1 mph - N/A   Clear